{"data":{"norad_id":53903,"epoch":"2026-09-20T10:12:58.180032Z","epoch_age_seconds":93071,"freshness":"FRESH","line1":"1 53903U 22119T   26263.42567338 -.00000668  00000+0 -97612-5 0  9993","line2":"2 53903  53.1591 160.1060 0001007  91.0566 269.0551 15.31704988221217","mean_motion":15.31704988,"eccentricity":0.0001007,"inclination_deg":53.1591,"raan_deg":160.106,"arg_perigee_deg":91.0566,"mean_anomaly_deg":269.0551,"bstar":-9.7612e-6,"rev_number":22121,"period_min":94.012881806976,"perigee_km":470.03544588143,"apogee_km":471.41480671367,"semimajor_km":6848.8621262976,"source":"CELESTRAK","updated_at":"2026-09-21T09:00:33.031297Z"}}